Time,TemperatureF,DewpointF,PressureIn,WindDirection,WindDirectionDegrees,WindSpeedMPH,WindSpeedGustMPH,Humidity,HourlyPrecipIn,Conditions,Clouds,dailyrainin,SoftwareType,DateUTC
2013-04-08 00:02:00,41.0,40.0,29.88,SE,126,4.0,5.0,95,0.01,,,1.00,,2013-04-08 07:02:00,
2013-04-08 00:12:00,41.0,40.0,29.88,SE,126,4.0,5.0,95,0.01,,,1.00,,2013-04-08 07:12:00,
2013-04-08 00:21:00,41.0,40.0,29.89,ESE,102,3.0,5.0,95,0.01,,,1.00,,2013-04-08 07:21:00,
2013-04-08 00:32:00,41.0,40.0,29.89,ESE,102,3.0,5.0,95,0.01,,,1.00,,2013-04-08 07:32:00,
2013-04-08 00:42:00,41.0,40.0,29.89,ESE,102,3.0,5.0,95,0.01,,,1.00,,2013-04-08 07:42:00,
2013-04-08 00:52:00,41.0,40.0,29.90,ENE,66,2.0,4.0,96,0.00,,,1.00,,2013-04-08 07:52:00,
2013-04-08 01:02:00,41.0,40.0,29.90,ENE,66,2.0,4.0,96,0.00,,,1.00,,2013-04-08 08:02:00,
2013-04-08 01:12:00,41.0,40.0,29.90,ENE,66,2.0,4.0,96,0.00,,,1.00,,2013-04-08 08:12:00,
2013-04-08 01:22:00,41.0,40.0,29.90,ENE,66,2.0,4.0,96,0.00,,,1.00,,2013-04-08 08:22:00,
2013-04-08 01:32:00,41.0,40.0,29.91,East,79,1.0,3.0,96,0.00,,,0.99,,2013-04-08 08:32:00,
2013-04-08 01:43:00,41.0,40.0,29.91,East,79,1.0,3.0,96,0.00,,,0.99,,2013-04-08 08:43:00,
2013-04-08 01:52:00,42.0,41.0,29.93,SSE,167,2.0,3.0,96,0.00,,,0.99,,2013-04-08 08:52:00,
2013-04-08 02:01:00,42.0,41.0,29.93,SSE,167,2.0,3.0,96,0.00,,,0.99,,2013-04-08 09:01:00,
2013-04-08 02:12:00,42.0,41.0,29.93,South,181,3.0,5.0,96,0.00,,,0.96,,2013-04-08 09:12:00,
2013-04-08 02:22:00,42.0,41.0,29.93,South,181,3.0,5.0,96,0.00,,,0.96,,2013-04-08 09:22:00,
2013-04-08 02:32:00,42.0,41.0,29.93,South,181,3.0,5.0,96,0.00,,,0.96,,2013-04-08 09:32:00,
2013-04-08 02:43:00,42.0,41.0,29.93,South,181,3.0,5.0,96,0.00,,,0.96,,2013-04-08 09:43:00,
2013-04-08 02:53:00,42.0,41.0,29.94,SE,136,1.0,3.0,96,0.00,,,0.96,,2013-04-08 09:53:00,
2013-04-08 03:02:00,42.0,41.0,29.94,SE,136,1.0,3.0,96,0.00,,,0.96,,2013-04-08 10:02:00,
2013-04-08 03:13:00,42.0,41.0,29.94,SE,136,1.0,3.0,96,0.00,,,0.96,,2013-04-08 10:13:00,
2013-04-08 03:22:00,42.0,41.0,29.95,SSW,204,2.0,5.0,96,0.00,,,0.86,,2013-04-08 10:22:00,
2013-04-08 03:32:00,42.0,41.0,29.95,SSW,204,2.0,5.0,96,0.00,,,0.86,,2013-04-08 10:32:00,
2013-04-08 03:43:00,42.0,41.0,29.95,SSW,204,2.0,5.0,96,0.00,,,0.86,,2013-04-08 10:43:00,
2013-04-08 03:53:00,42.0,41.0,29.95,SW,228,4.0,9.0,95,0.01,,,0.87,,2013-04-08 10:53:00,
2013-04-08 04:02:00,42.0,41.0,29.95,SW,228,4.0,9.0,95,0.01,,,0.87,,2013-04-08 11:02:00,
2013-04-08 04:12:00,42.0,41.0,29.97,SW,219,2.0,7.0,95,0.01,,,0.75,,2013-04-08 11:12:00,
2013-04-08 04:22:00,42.0,41.0,29.97,SW,219,2.0,7.0,95,0.01,,,0.75,,2013-04-08 11:22:00,
2013-04-08 04:32:00,42.0,41.0,29.97,SW,219,2.0,7.0,95,0.01,,,0.75,,2013-04-08 11:32:00,
2013-04-08 04:43:00,42.0,41.0,29.97,SW,219,2.0,7.0,95,0.01,,,0.75,,2013-04-08 11:43:00,
2013-04-08 04:52:00,42.0,41.0,29.98,SSW,207,4.0,6.0,95,0.01,,,0.76,,2013-04-08 11:52:00,
2013-04-08 05:01:00,42.0,41.0,29.98,SSW,207,4.0,6.0,95,0.01,,,0.76,,2013-04-08 12:01:00,
2013-04-08 05:12:00,42.0,41.0,29.98,SSW,207,4.0,6.0,95,0.01,,,0.76,,2013-04-08 12:12:00,
2013-04-08 05:22:00,42.0,41.0,29.99,SW,225,4.0,8.0,96,0.02,,,0.63,,2013-04-08 12:22:00,
2013-04-08 05:32:00,42.0,41.0,29.99,SW,225,4.0,8.0,96,0.02,,,0.63,,2013-04-08 12:32:00,
2013-04-08 05:42:00,42.0,41.0,29.99,SW,225,4.0,8.0,96,0.02,,,0.63,,2013-04-08 12:42:00,
2013-04-08 05:52:00,41.0,40.0,30.00,SW,221,5.0,8.0,96,0.01,,,0.63,,2013-04-08 12:52:00,
2013-04-08 06:02:00,41.0,40.0,30.00,SW,221,5.0,8.0,96,0.01,,,0.63,,2013-04-08 13:02:00,
2013-04-08 06:12:00,41.0,40.0,30.00,SW,221,5.0,8.0,96,0.01,,,0.63,,2013-04-08 13:12:00,
2013-04-08 06:22:00,41.0,40.0,30.01,WSW,250,5.0,9.0,96,0.00,,,0.45,,2013-04-08 13:22:00,
2013-04-08 06:32:00,41.0,40.0,30.01,WSW,250,5.0,9.0,96,0.00,,,0.45,,2013-04-08 13:32:00,
2013-04-08 06:43:00,41.0,40.0,30.01,WSW,250,5.0,9.0,96,0.00,,,0.45,,2013-04-08 13:43:00,
2013-04-08 06:52:00,41.0,40.0,30.03,South,171,5.0,8.0,95,0.00,,,0.45,,2013-04-08 13:52:00,
2013-04-08 07:02:00,41.0,40.0,30.03,South,171,5.0,8.0,95,0.00,,,0.45,,2013-04-08 14:02:00,
2013-04-08 07:12:00,41.0,40.0,30.03,South,171,5.0,8.0,95,0.00,,,0.45,,2013-04-08 14:12:00,
2013-04-08 07:22:00,42.0,41.0,30.04,SSW,210,2.0,5.0,95,0.00,,,0.34,,2013-04-08 14:22:00,
2013-04-08 07:32:00,42.0,41.0,30.04,SSW,210,2.0,5.0,95,0.00,,,0.34,,2013-04-08 14:32:00,
2013-04-08 07:43:00,42.0,41.0,30.06,South,186,2.0,4.0,95,0.00,,,0.34,,2013-04-08 14:43:00,
2013-04-08 07:52:00,42.0,41.0,30.06,South,186,2.0,4.0,95,0.00,,,0.34,,2013-04-08 14:52:00,
2013-04-08 08:02:00,42.0,41.0,30.06,South,186,2.0,4.0,95,0.00,,,0.34,,2013-04-08 15:02:00,
2013-04-08 08:12:00,43.0,42.0,30.07,South,169,1.0,5.0,95,0.00,,,0.32,,2013-04-08 15:12:00,
2013-04-08 08:22:00,43.0,42.0,30.07,South,169,1.0,5.0,95,0.00,,,0.32,,2013-04-08 15:22:00,
2013-04-08 08:33:00,43.0,42.0,30.07,South,169,1.0,5.0,95,0.00,,,0.32,,2013-04-08 15:33:00,
2013-04-08 08:43:00,43.0,42.0,30.07,South,169,1.0,5.0,95,0.00,,,0.32,,2013-04-08 15:43:00,
2013-04-08 08:53:00,43.0,42.0,30.07,SW,217,2.0,6.0,95,0.00,,,0.32,,2013-04-08 15:53:00,
2013-04-08 09:02:00,43.0,42.0,30.07,SW,217,2.0,6.0,95,0.00,,,0.32,,2013-04-08 16:02:00,
2013-04-08 09:12:00,43.0,42.0,30.07,SW,217,2.0,6.0,95,0.00,,,0.32,,2013-04-08 16:12:00,
2013-04-08 09:22:00,44.0,42.0,30.08,South,184,3.0,4.0,94,0.00,,,0.29,,2013-04-08 16:22:00,
2013-04-08 09:32:00,44.0,42.0,30.08,South,184,3.0,4.0,94,0.00,,,0.29,,2013-04-08 16:32:00,
2013-04-08 09:42:00,44.0,42.0,30.08,South,184,3.0,4.0,94,0.00,,,0.29,,2013-04-08 16:42:00,
2013-04-08 09:53:00,44.0,42.0,30.09,SW,226,4.0,8.0,93,0.00,,,0.29,,2013-04-08 16:53:00,
2013-04-08 10:02:00,44.0,42.0,30.09,SW,226,4.0,8.0,93,0.00,,,0.29,,2013-04-08 17:02:00,
2013-04-08 10:12:00,45.0,43.0,30.10,SSE,162,4.0,6.0,93,0.00,,,0.24,,2013-04-08 17:12:00,
2013-04-08 10:22:00,45.0,43.0,30.10,SSE,162,4.0,6.0,93,0.00,,,0.24,,2013-04-08 17:22:00,
2013-04-08 10:32:00,45.0,43.0,30.10,SSE,162,4.0,6.0,93,0.00,,,0.24,,2013-04-08 17:32:00,
2013-04-08 10:44:00,45.0,43.0,30.10,SSE,162,4.0,6.0,93,0.00,,,0.24,,2013-04-08 17:44:00,
2013-04-08 10:52:00,46.0,43.0,30.11,SW,233,4.0,6.0,90,0.00,,,0.24,,2013-04-08 17:52:00,
2013-04-08 11:02:00,46.0,43.0,30.11,SW,233,4.0,6.0,90,0.00,,,0.24,,2013-04-08 18:02:00,
2013-04-08 11:12:00,46.0,43.0,30.11,SW,233,4.0,6.0,90,0.00,,,0.24,,2013-04-08 18:12:00,
2013-04-08 11:22:00,47.0,44.0,30.12,WSW,250,3.0,5.0,89,0.00,,,0.16,,2013-04-08 18:22:00,
2013-04-08 11:32:00,47.0,44.0,30.12,WSW,250,3.0,5.0,89,0.00,,,0.16,,2013-04-08 18:32:00,
2013-04-08 11:42:00,50.0,45.0,30.12,SW,217,3.0,6.0,83,0.00,,,0.16,,2013-04-08 18:42:00,
2013-04-08 11:52:00,50.0,45.0,30.12,SW,217,3.0,6.0,83,0.00,,,0.16,,2013-04-08 18:52:00,
2013-04-08 12:02:00,50.0,45.0,30.12,SW,217,3.0,6.0,83,0.00,,,0.16,,2013-04-08 19:02:00,
2013-04-08 12:12:00,50.0,45.0,30.12,SW,217,3.0,6.0,83,0.00,,,0.16,,2013-04-08 19:12:00,
2013-04-08 12:22:00,48.0,44.0,30.14,SW,224,5.0,8.0,85,0.00,,,0.13,,2013-04-08 19:22:00,
2013-04-08 12:32:00,48.0,44.0,30.14,SW,224,5.0,8.0,85,0.00,,,0.13,,2013-04-08 19:32:00,
2013-04-08 12:43:00,50.0,45.0,30.14,SSE,156,4.0,7.0,82,0.00,,,0.13,,2013-04-08 19:43:00,
2013-04-08 12:52:00,50.0,45.0,30.14,SSE,156,4.0,7.0,82,0.00,,,0.13,,2013-04-08 19:52:00,
2013-04-08 13:02:00,50.0,45.0,30.14,SSE,156,4.0,7.0,82,0.00,,,0.13,,2013-04-08 20:02:00,
2013-04-08 13:12:00,52.0,46.0,30.14,West,266,4.0,7.0,81,0.00,,,0.13,,2013-04-08 20:12:00,
2013-04-08 13:22:00,52.0,46.0,30.14,West,266,4.0,7.0,81,0.00,,,0.13,,2013-04-08 20:22:00,
2013-04-08 13:32:00,52.0,46.0,30.14,West,266,4.0,7.0,81,0.00,,,0.13,,2013-04-08 20:32:00,
2013-04-08 13:43:00,52.0,46.0,30.14,West,266,4.0,7.0,81,0.00,,,0.13,,2013-04-08 20:43:00,
2013-04-08 13:52:00,53.0,45.0,30.15,SSW,200,4.0,7.0,75,0.00,,,0.13,,2013-04-08 20:52:00,
2013-04-08 14:01:00,53.0,45.0,30.15,SSW,200,4.0,7.0,75,0.00,,,0.13,,2013-04-08 21:01:00,
2013-04-08 14:12:00,52.0,44.0,30.16,SW,228,2.0,7.0,74,0.00,,,0.11,,2013-04-08 21:12:00,
2013-04-08 14:22:00,52.0,44.0,30.16,SW,228,2.0,7.0,74,0.00,,,0.11,,2013-04-08 21:22:00,
2013-04-08 14:32:00,52.0,44.0,30.16,SW,228,2.0,7.0,74,0.00,,,0.11,,2013-04-08 21:32:00,
2013-04-08 14:43:00,52.0,44.0,30.16,SW,228,2.0,7.0,74,0.00,,,0.11,,2013-04-08 21:43:00,
2013-04-08 14:53:00,53.0,45.0,30.15,SSW,194,5.0,11.0,73,0.00,,,0.11,,2013-04-08 21:53:00,
2013-04-08 15:02:00,53.0,45.0,30.15,SSW,194,5.0,11.0,73,0.00,,,0.11,,2013-04-08 22:02:00,
2013-04-08 15:12:00,53.0,45.0,30.15,SSW,194,5.0,11.0,73,0.00,,,0.11,,2013-04-08 22:12:00,
2013-04-08 15:22:00,54.0,46.0,30.15,WSW,256,4.0,10.0,75,0.00,,,0.05,,2013-04-08 22:22:00,
2013-04-08 15:32:00,54.0,46.0,30.15,WSW,256,4.0,10.0,75,0.00,,,0.05,,2013-04-08 22:32:00,
2013-04-08 15:43:00,54.0,46.0,30.15,WSW,256,4.0,10.0,75,0.00,,,0.05,,2013-04-08 22:43:00,
2013-04-08 15:53:00,55.0,44.0,30.16,SSE,165,4.0,9.0,66,0.00,,,0.05,,2013-04-08 22:53:00,
2013-04-08 16:02:00,55.0,44.0,30.16,SSE,165,4.0,9.0,66,0.00,,,0.05,,2013-04-08 23:02:00,
2013-04-08 16:12:00,55.0,44.0,30.16,SSE,165,4.0,9.0,66,0.00,,,0.05,,2013-04-08 23:12:00,
2013-04-08 16:22:00,55.0,44.0,30.16,SSE,165,4.0,9.0,66,0.00,,,0.05,,2013-04-08 23:22:00,
2013-04-08 16:32:00,55.0,45.0,30.15,SW,233,5.0,9.0,70,0.00,,,0.05,,2013-04-08 23:32:00,
2013-04-08 16:43:00,55.0,45.0,30.15,SW,233,5.0,9.0,70,0.00,,,0.05,,2013-04-08 23:43:00,
2013-04-08 16:52:00,54.0,45.0,30.16,West,259,5.0,9.0,72,0.00,,,0.05,,2013-04-08 23:52:00,
2013-04-08 17:02:00,54.0,45.0,30.16,West,259,5.0,9.0,72,0.00,,,0.05,,2013-04-09 00:02:00,
2013-04-08 17:12:00,54.0,45.0,30.16,West,259,5.0,9.0,72,0.00,,,0.05,,2013-04-09 00:12:00,
2013-04-08 17:22:00,53.0,45.0,30.16,WSW,256,4.0,6.0,75,0.00,,,0.04,,2013-04-09 00:22:00,
2013-04-08 17:31:00,53.0,45.0,30.16,WSW,256,4.0,6.0,75,0.00,,,0.04,,2013-04-09 00:31:00,
2013-04-08 17:42:00,53.0,45.0,30.16,WSW,256,4.0,6.0,75,0.00,,,0.04,,2013-04-09 00:42:00,
2013-04-08 17:52:00,54.0,45.0,30.17,West,273,4.0,7.0,72,0.00,,,0.04,,2013-04-09 00:52:00,
2013-04-08 18:12:00,54.0,45.0,30.17,West,273,4.0,7.0,72,0.00,,,0.04,,2013-04-09 01:12:00,
2013-04-08 18:22:00,53.0,45.0,30.18,WSW,248,4.0,7.0,75,0.00,,,0.04,,2013-04-09 01:22:00,
2013-04-08 18:32:00,53.0,45.0,30.18,WSW,248,4.0,7.0,75,0.00,,,0.04,,2013-04-09 01:32:00,
2013-04-08 18:42:00,52.0,45.0,30.19,WSW,250,4.0,6.0,76,0.00,,,0.04,,2013-04-09 01:42:00,
2013-04-08 18:52:00,52.0,45.0,30.19,WSW,250,4.0,6.0,76,0.00,,,0.04,,2013-04-09 01:52:00,
2013-04-08 19:02:00,52.0,45.0,30.19,WSW,250,4.0,6.0,76,0.00,,,0.04,,2013-04-09 02:02:00,
2013-04-08 19:12:00,52.0,45.0,30.19,WSW,250,4.0,6.0,76,0.00,,,0.04,,2013-04-09 02:12:00,
2013-04-08 19:22:00,52.0,45.0,30.20,SSW,194,4.0,5.0,78,0.00,,,0.04,,2013-04-09 02:22:00,
2013-04-08 19:32:00,52.0,45.0,30.20,SSW,194,4.0,5.0,78,0.00,,,0.04,,2013-04-09 02:32:00,
2013-04-08 19:44:00,51.0,44.0,30.20,WSW,241,4.0,6.0,78,0.00,,,0.04,,2013-04-09 02:44:00,
2013-04-08 19:52:00,51.0,44.0,30.20,WSW,241,4.0,6.0,78,0.00,,,0.04,,2013-04-09 02:52:00,
2013-04-08 20:02:00,51.0,44.0,30.20,WSW,241,4.0,6.0,78,0.00,,,0.04,,2013-04-09 03:02:00,
2013-04-08 20:12:00,51.0,44.0,30.20,WSW,241,4.0,6.0,78,0.00,,,0.04,,2013-04-09 03:12:00,
2013-04-08 20:21:00,51.0,45.0,30.21,SW,228,5.0,7.0,79,0.00,,,0.04,,2013-04-09 03:21:00,
2013-04-08 20:32:00,51.0,45.0,30.21,SW,228,5.0,7.0,79,0.00,,,0.04,,2013-04-09 03:32:00,
2013-04-08 20:43:00,51.0,45.0,30.21,SW,228,5.0,7.0,79,0.00,,,0.04,,2013-04-09 03:43:00,
2013-04-08 20:53:00,50.0,44.0,30.22,SSW,208,3.0,7.0,81,0.00,,,0.04,,2013-04-09 03:53:00,
2013-04-08 21:02:00,50.0,44.0,30.22,SSW,208,3.0,7.0,81,0.00,,,0.04,,2013-04-09 04:02:00,
2013-04-08 21:12:00,50.0,44.0,30.22,SSW,208,3.0,7.0,81,0.00,,,0.04,,2013-04-09 04:12:00,
2013-04-08 21:22:00,49.0,44.0,30.23,WSW,253,5.0,8.0,83,0.00,,,0.04,,2013-04-09 04:22:00,
2013-04-08 21:32:00,49.0,44.0,30.23,WSW,253,5.0,8.0,83,0.00,,,0.04,,2013-04-09 04:32:00,
2013-04-08 21:43:00,49.0,44.0,30.23,WSW,253,5.0,8.0,83,0.00,,,0.04,,2013-04-09 04:43:00,
2013-04-08 21:53:00,49.0,44.0,30.23,WSW,253,5.0,8.0,83,0.00,,,0.04,,2013-04-09 04:53:00,
2013-04-08 22:02:00,48.0,43.0,30.24,SSW,210,6.0,10.0,84,0.00,,,0.04,,2013-04-09 05:02:00,
2013-04-08 22:12:00,48.0,44.0,30.25,SW,233,2.0,4.0,85,0.00,,,0.04,,2013-04-09 05:12:00,
2013-04-08 22:22:00,48.0,44.0,30.25,SW,233,2.0,4.0,85,0.00,,,0.04,,2013-04-09 05:22:00,
2013-04-08 22:32:00,48.0,44.0,30.25,SW,233,2.0,4.0,85,0.00,,,0.04,,2013-04-09 05:32:00,
2013-04-08 22:43:00,47.0,43.0,30.26,South,174,0.0,4.0,87,0.00,,,0.04,,2013-04-09 05:43:00,
2013-04-08 22:52:00,47.0,43.0,30.26,South,174,0.0,4.0,87,0.00,,,0.04,,2013-04-09 05:52:00,
2013-04-08 23:02:00,47.0,43.0,30.26,South,174,0.0,4.0,87,0.00,,,0.04,,2013-04-09 06:02:00,
2013-04-08 23:12:00,46.0,43.0,30.26,SSW,198,2.0,4.0,88,0.00,,,0.04,,2013-04-09 06:12:00,
2013-04-08 23:22:00,46.0,43.0,30.26,SSW,198,2.0,4.0,88,0.00,,,0.04,,2013-04-09 06:22:00,
2013-04-08 23:32:00,46.0,43.0,30.26,SSW,198,2.0,4.0,88,0.00,,,0.04,,2013-04-09 06:32:00,
2013-04-08 23:42:00,46.0,43.0,30.26,SSW,198,2.0,4.0,88,0.00,,,0.04,,2013-04-09 06:42:00,
2013-04-08 23:52:00,46.0,43.0,30.27,South,170,2.0,5.0,88,0.00,,,0.04,,2013-04-09 06:52:00,